Location: Nelson
(41.2830°S, 173.2830°E)
Time: 14:06:35
(UTC+13:00)

Daily predictions for brighter satellites

Satellite Brightness Start Highest point End
(mag) Time Altitude Azimuth Time Altitude Azimuth Time Altitude Azimuth
Cosmos 1741 Rocket 4.1 21:17:19 10° NNW 21:22:39 78° ENE 21:28:04 10° SSE
ADEOS Rocket 3.9 21:20:07 10° ENE 21:24:46 28° ESE 21:29:23 10° S
CZ-2D R/B 3.3 21:24:07 10° SSE 21:28:07 87° E 21:32:03 10° NNW
USA 186 2.4 21:26:06 10° SE 21:28:40 28° E 21:31:04 10° NNE
Cosmos 1184 Rocket 3.8 21:26:34 10° NNW 21:29:53 53° WSW 21:33:15 10° S
Cosmos 1515 Rocket 4.4 21:26:44 10° NNE 21:30:44 32° E 21:34:47 10° SSE
Cosmos 1939 Rocket 3.0 21:29:29 10° SSE 21:33:41 65° E 21:37:51 10° N
Envisat 3.8 21:28:54 10° S 21:33:57 58° WSW 21:38:58 10° NNW
NOAA 11 4.5 21:31:45 10° SSE 21:37:10 49° E 21:42:30 10° N
USA 32 4.1 21:33:29 10° N 21:38:45 88° W 21:44:06 10° S
Cosmos 2227 4.2 21:34:12 10° SSW 21:39:56 76° ESE 21:45:35 10° NNE
Meteor 2-10 Rocket 3.8 21:35:26 10° NNW 21:40:33 74° W 21:45:55 10° S
Resurs 01 Rocket 2.9 21:38:46 10° SE 21:42:15 22° E 21:45:42 10° NE
Cosmos 292 Rocket 4.1 21:38:02 10° SSW 21:42:49 68° WNW 21:47:34 10° N
Cosmos 1850 Rocket 4.5 21:38:18 10° NNW 21:43:31 66° WSW 21:48:44 10° SSE
Cosmos 2263 Rocket 2.7 21:38:34 10° SSW 21:44:03 47° ESE 21:49:12 12° NE
Aureole 3 Rocket 2.7 21:44:26 10° S 21:47:55 76° E 21:52:23 10° NNE
CZ-2C R/B 3.0 21:48:39 10° NE 21:53:56 52° ESE 21:59:10 10° S
BREEZE-M DEB (TANK) 4.4 21:36:29 10° NW 21:54:15 86° NE 21:58:24 10° ESE
Resurs 1-3 4.3 21:51:23 10° SSE 21:55:29 35° E 21:59:32 10° NNE
Cosmos 1151 Rocket 3.0 21:51:19 10° N 21:55:35 73° E 21:59:58 10° SSE
Cosmos 2208 Rocket 4.1 21:58:42 10° SSW 22:03:59 85° WNW 22:09:01 11° NNE
SPOT 3 Rocket 4.0 21:59:54 10° S 22:05:08 68° WSW 22:10:16 10° NNW
Cosmos 2315 Rocket 4.0 21:58:53 10° S 22:05:19 83° E 22:11:37 10° N
CZ-4C R/B 4.3 22:04:27 10° S 22:08:05 16° SSE 22:11:25 10° ESE
H-2A R/B 3.8 22:08:47 10° NNW 22:12:10 21° NE 22:21:23 10° E
Cosmos 1633 Rocket 4.4 22:11:15 10° SSW 22:15:23 39° W 22:19:28 10° NNW
Cosmos 540 Rocket 4.1 22:11:03 10° S 22:16:01 42° ESE 22:19:09 21° NE
ATLAS 3B R/B 4.1 22:18:33 17° ENE 22:19:26 17° ENE 22:23:43 10° ESE
USA 238 DEB 4.4 22:16:56 10° N 22:23:23 34° ENE 22:29:47 10° SE
USA 238 4.4 22:17:03 10° N 22:23:28 34° ENE 22:29:52 10° SE
BREEZE-M DEB (TANK) 2.0 22:23:32 10° WNW 22:27:57 68° SSW 22:29:45 15° ESE
Cosmos 1862 3.4 22:24:14 10° S 22:28:19 80° W 22:31:06 19° N
Cosmos 1763 Rocket 3.9 22:25:13 10° SSW 22:30:26 62° WNW 22:34:28 16° N
Atlas Centaur 2 3.6 22:24:13 10° WNW 22:31:53 38° N 22:36:40 22° ENE
Cosmos 1869 Rocket 4.1 22:30:38 10° S 22:34:53 43° ESE 22:36:30 30° NE
ERBS 3.7 22:32:22 10° SSW 22:35:34 31° SE 22:37:00 22° E
Meteor 2-13 Rocket 4.5 22:29:52 10° N 22:35:57 83° W 22:42:09 10° S
Nimbus 7 Rocket 4.5 22:38:54 25° NNE 22:42:26 66° ESE 22:48:25 10° S
Cosmos 1486 Rocket 3.9 22:37:22 10° N 22:42:35 74° ENE 22:47:52 10° SSE
H-2A R/B 2.0 22:37:33 10° SSE 22:42:36 62° E 22:45:39 23° N
ERS-1 Rocket 4.3 22:40:00 10° SE 22:43:49 21° E 22:44:02 21° E
SL-08 R/B 4.4 22:39:25 15° N 22:44:37 76° E 22:50:51 10° S
SL-16 R/B 3.1 22:39:51 10° NW 22:45:24 52° WSW 22:51:00 10° SSE
Mayak 0.2 22:46:27 22° E 22:47:18 23° ESE 22:50:38 10° SSE
Cosmos 2360 Rocket 2.1 22:45:07 10° NNW 22:50:48 76° ENE 22:56:32 10° SSE
Lacrosse 5 rocket 3.9 22:52:20 10° S 22:53:23 11° SSE 22:54:26 10° SE
Cosmos 1707 Rocket 3.7 22:55:32 42° NE 22:56:35 53° E 23:00:53 10° SSE
Cosmos 1733 Rocket 4.5 22:53:43 10° SSE 22:57:18 23° ESE 22:57:44 23° E
Lacrosse 5 3.8 22:54:51 10° WSW 22:58:29 20° WNW 23:01:12 13° NNW
Meteor 1-26 Rocket 4.3 22:56:00 29° NNE 22:58:54 60° E 23:04:34 10° SSE
Cosmos 1242 Rocket 3.7 22:55:36 10° SSW 22:59:10 41° W 23:00:53 25° NNW
Cosmos 1844 Rocket 3.3 22:55:05 10° SSW 23:00:29 43° ESE 23:02:38 30° ENE
Cosmos 1933 3.6 22:58:17 25° NNW 23:00:34 71° W 23:04:44 10° S
Cosmos 841 Rocket 4.1 22:56:06 10° SSW 23:01:16 52° WNW 23:04:12 24° N
Helios 1B rocket 2.4 23:00:45 48° NE 23:01:47 71° ESE 23:05:58 10° S
COSMOS 2428 3.3 23:03:03 33° ENE 23:03:41 34° ENE 23:08:51 10° SE
Cosmos 2322 Rocket 3.5 22:59:25 10° NW 23:04:45 40° WSW 23:10:09 10° S
SPOT 1/Viking Rocket 4.5 23:04:45 10° SE 23:09:23 30° E 23:09:30 30° E
Cosmos 1745 Rocket 4.0 23:05:15 22° N 23:09:41 89° WSW 23:16:07 10° S
Cosmos 968 Rocket 3.7 23:08:48 43° NE 23:09:51 49° ENE 23:14:55 10° SSE
ADEOS Rocket 3.9 23:05:50 15° NNW 23:10:09 39° W 23:15:20 10° SSW
Cosmos 1386 Rocket 4.4 23:09:16 28° N 23:12:46 82° E 23:18:56 10° S
Cosmos 1709 Rocket 4.2 23:15:10 38° NE 23:17:14 54° E 23:23:21 10° SSE
Terra 3.6 23:14:23 10° SE 23:16:50 18° ESE 23:16:50 18° ESE
Cosmos 1633 3.7 23:14:57 10° SSW 23:18:22 38° W 23:19:15 32° NW
Resurs 01 Rocket 3.2 23:14:44 10° S 23:18:48 35° WSW 23:22:50 10° NW
ARGOS 3.6 23:13:46 10° S 23:19:07 60° WSW 23:23:31 15° NNW
Spot 2 Rocket 3.9 23:16:35 10° S 23:21:42 62° WSW 23:25:12 20° NNW
Cosmos 2322 3.6 23:18:11 22° NNW 23:21:59 88° ENE 23:27:44 10° SSE
Cosmos 1862 Rocket 4.3 23:23:39 38° E 23:23:39 38° E 23:27:28 10° SSE
MetOp-B 4.1 23:18:19 10° SSE 23:23:47 86° ENE 23:25:59 38° N
Meteor 1-25 Rocket 4.2 23:18:01 10° S 23:23:57 84° E 23:25:57 44° NNE
Cosmos 1606 2.7 23:25:39 70° NW 23:26:02 79° W 23:30:02 10° S
Cosmos 2263 Rocket 3.9 23:23:08 10° SW 23:27:39 25° WNW 23:30:54 15° NW
CENTAUR R/B 3.8 23:28:52 28° ENE 23:28:52 28° ENE 23:34:26 10° ESE
Meteor 2-6 Rocket 4.5 23:33:41 44° ENE 23:33:59 44° E 23:39:09 10° SSE
Cosmos 2333 Rocket 2.4 23:35:00 49° ENE 23:35:22 50° ENE 23:40:58 10° SE
Cosmos 2278 Rocket 3.6 23:32:02 10° S 23:36:47 26° SE 23:38:32 22° E
Cosmos 2219 Rocket 2.2 23:36:23 53° NE 23:36:55 55° ENE 23:42:31 10° SSE
IRAS Rocket 4.2 23:32:01 10° SSE 23:37:41 87° WSW 23:39:48 40° NNW
Cosmos 2181 Rocket 4.2 23:32:15 10° S 23:38:24 56° E 23:39:48 46° ENE
IGS 5A 4.4 23:38:10 10° SSE 23:41:15 37° ESE 23:41:15 37° ESE
SeaSat 1 2.3 23:38:50 10° SSE 23:43:48 67° ENE 23:43:59 66° NE
Gbstr 26 Del rocket 4.4 23:42:30 10° SW 23:45:55 27° SSE 23:46:54 24° SE
Cosmos 2237 Rocket 3.4 23:51:01 28° E 23:51:01 28° E 23:54:47 10° SE
Cosmos 1340 Rocket 3.3 23:50:56 54° SSE 23:50:56 54° SSE 23:54:09 10° SSE
Cosmos 1818 3.8 23:47:57 24° NW 23:51:15 69° SW 23:56:39 10° SSE
